Fort Lewis, WA
on Thursday, December 20, 2012

Thursday
Previous Day Next Day
Daily Summary
 ActualAverage (KOLM)Record (KOLM)
Temperature
Mean Temperature °F 38°F  
Max Temperature 46°F 44°F 56°F (1973)
Min Temperature 27°F 32°F 4°F (1990)
Degree Days
Heating Degree Days 28 27  
Month to date heating degree days 529  
Since 1 July heating degree days 1974  
Cooling Degree Days 0 0  
Month to date cooling degree days 0  
Year to date cooling degree days 106  
Moisture
Dew Point 37°F   
Average Humidity 90    
Maximum Humidity 98    
Minimum Humidity 76    
Precipitation
Precipitation 0.35 in 0.22 in 1.87 in (1955)
Month to date precipitation 4.93  
Year to date precipitation 47.47  
Wind
Wind Speed 9 mph   
Max Wind Speed 21 mph   
Max Gust Speed 32 mph   
Visibility 10 miles   
Events Rain   

Key: T is trace of precipitation, MM is missing value
Source: NWS Daily Summary
Time(PST)TemperatureDew PointHumidity Pressure Visibility Wind DirectionWind SpeedGust SpeedPrecipitationEvents Conditions
12:58 AM 40.8°F 40.3°F 98% 29.52 in 10.0 miles Variable 3.5 mph - N/A   Overcast
1:27 AM 42.8°F 41.0°F 93% 29.49 in 10.0 miles ESE 6.9 mph - N/A   Overcast
1:36 AM 44.6°F 41.0°F 87% 29.49 in 10.0 miles ESE 8.1 mph - N/A   Overcast
1:58 AM 44.4°F 40.5°F 86% 29.52 in 10.0 miles SSE 11.5 mph - 0.01 in   Overcast
2:58 AM 45.7°F 39.9°F 80% 29.52 in 10.0 miles SSE 20.7 mph 31.1 mph 0.01 in   Mostly Cloudy
3:43 AM 46.4°F 39.2°F 76% 29.53 in 10.0 miles SSE 19.6 mph 32.2 mph N/A   Mostly Cloudy
3:58 AM 45.9°F 39.7°F 79% 29.54 in 10.0 miles SSE 17.3 mph 27.6 mph N/A   Mostly Cloudy
4:58 AM 43.7°F 39.7°F 86% 29.54 in 10.0 miles SSE 11.5 mph - N/A   Mostly Cloudy
5:18 AM 42.8°F 39.2°F 87% 29.52 in 10.0 miles SSE 10.4 mph - N/A   Scattered Clouds
5:33 AM 42.8°F 39.2°F 87% 29.53 in 10.0 miles SSE 8.1 mph - N/A   Mostly Cloudy
5:34 AM 42.8°F 39.2°F 87% 29.53 in 10.0 miles SSE 8.1 mph - N/A   Mostly Cloudy
5:39 AM 42.8°F 41.0°F 93% 29.53 in 10.0 miles SSE 10.4 mph - N/A   Light Drizzle
5:58 AM 42.4°F 40.3°F 92% 29.54 in 10.0 miles SSE 6.9 mph - 0.02 in   Light Drizzle
6:30 AM 42.8°F 39.2°F 87% 29.52 in 10.0 miles South 8.1 mph - N/A   Mostly Cloudy
6:58 AM 42.1°F 39.2°F 90% 29.56 in 10.0 miles South 5.8 mph - 0.03 in   Mostly Cloudy
6:59 AM 42.8°F 39.2°F 87% 29.54 in 10.0 miles South 5.8 mph - N/A   Light Drizzle
7:58 AM 41.4°F 39.0°F 91% 29.57 in 10.0 miles South 9.2 mph - 0.06 in   Light Drizzle
8:13 AM 41.0°F 39.2°F 93% 29.54 in 10.0 miles SSE 6.9 mph - N/A   Overcast
8:53 AM 41.0°F 39.2°F 93% 29.57 in 10.0 miles SSE 11.5 mph - N/A   Mostly Cloudy
8:58 AM 40.8°F 38.3°F 91% 29.59 in 10.0 miles SSE 9.2 mph - 0.02 in   Mostly Cloudy
9:00 AM 41.0°F 39.2°F 93% 29.56 in 10.0 miles SSE 10.4 mph - N/A   Overcast
9:35 AM 41.0°F 37.4°F 87% 29.59 in 10.0 miles SSE 10.4 mph - N/A Rain Light Rain
9:58 AM 40.3°F 37.9°F 91% 29.61 in 10.0 miles SSE 12.7 mph - 0.05 in   Light Drizzle
10:58 AM 39.4°F 37.0°F 91% 29.65 in 10.0 miles SSE 11.5 mph - 0.05 in Rain Light Rain
11:58 AM 39.6°F 37.4°F 92% 29.66 in 10.0 miles SSE 9.2 mph - 0.07 in Rain Light Rain
12:13 PM 39.2°F 37.4°F 93% 29.65 in 10.0 miles SSE 10.4 mph - N/A   Light Drizzle
12:14 PM 39.2°F 37.4°F 93% 29.65 in 10.0 miles SSE 11.5 mph - N/A   Overcast
12:24 PM 39.2°F 37.4°F 93% 29.65 in 10.0 miles SSE 12.7 mph - N/A   Overcast
12:58 PM 39.9°F 37.2°F 90% 29.69 in 10.0 miles SSE 12.7 mph - 0.02 in   Mostly Cloudy
1:03 PM 39.2°F 37.4°F 93% 29.67 in 10.0 miles SSE 10.4 mph - N/A   Scattered Clouds
1:58 PM 40.1°F 37.0°F 89% 29.70 in 10.0 miles SSE 8.1 mph - N/A   Scattered Clouds
2:58 PM 41.2°F 36.9°F 85% 29.74 in 10.0 miles South 12.7 mph - N/A   Mostly Cloudy
3:58 PM 40.6°F 34.9°F 80% 29.77 in 10.0 miles South 10.4 mph 20.7 mph N/A   Scattered Clouds
4:58 PM 36.9°F 33.4°F 87% 29.78 in 10.0 miles SE 12.7 mph - N/A   Partly Cloudy
5:58 PM 36.0°F 32.5°F 87% 29.80 in 10.0 miles SSE 5.8 mph - 0.01 in   Clear
6:58 PM 36.3°F 32.9°F 87% 29.81 in 10.0 miles SSE 4.6 mph - N/A   Clear
7:58 PM 33.6°F 32.5°F 96% 29.82 in 10.0 miles East 2.3 mph - N/A   Clear
8:58 PM 32.5°F 31.6°F 96% 29.82 in 10.0 miles ENE 2.3 mph - N/A   Clear
9:58 PM 29.7°F 28.9°F 97% 29.82 in 10.0 miles SE 3.5 mph - N/A   Clear
10:58 PM 30.0°F 29.5°F 98% 29.83 in 10.0 miles East 2.3 mph - N/A   Clear
11:58 PM 27.7°F 27.0°F 97% 29.83 in 2.5 miles East 3.5 mph - N/A   Clear
Moon Phase
Dec. 20 Dec. 28 Jan. 04 Jan. 11 Jan. 18
Sunrise:07:53 AM (PST) Moon Rise:12:02 PM (PST)
Sunset:04:23 PM (PST) Moon Set:12:24 AM (PST)

Copyright © 2014 The Weather Underground, Inc.